Project,Study,Ord_Occ,Event_Num,Cast_ID,Date_Time_UTC,Date_Time_PST,Lat_Dec,Lon_Dec,Sta_ID,Line,Sta,Depth,Pressure,PrQ,Temp1,Temp1Q,Temp2,Temp2Q,TempAve,Salt1,Salt1Q,Salt1_Corr,Salt2,Salt2Q,Salt2_Corr,SaltAve_Corr,Ox1,Ox1Q,Ox1_CruiseCorr,Ox1_StaCorr,Ox2,Ox2Q,Ox2_CruiseCorr,Ox2_StaCorr,OxAve_StaCorr,Ox1uM,Ox1uM_CruiseCorr,Ox1uM_StaCorr,Ox2uM,Ox2uM_CruiseCorr,Ox2uM_StaCorr,OxAveuM_StaCorr,FluorV,FluorQ,EstChl_CruiseCorr,EstChl_StaCorr,ISUSV,ISUSQ,EstNO3_CruiseCorr,EstNO3_StaCorr,SigThetaTS1,SigThetaTS1Q,SigThetaTS2,SigThetaTS2Q,BAT,XMiss,TransQ,pH,pHQ,SPAR,SPARQ,PAR,PARQ,PoT1,PoT2,DynHt,SVA,OxSat1,OxSat2,BTL_Depth,BTL_Temp,SaltB,OxB,OxBuM,Chl-a,Phaeo,NO3,NO2,NH4,PO4,SIL
CalCOFI,2101RL,024,,2101_024u,21-Jan-2021 21:39:13,21-Jan-2021 13:39:13,32.41298,-119.96410,090.0 060.0,090.0,060.0,521.000,525.340,,5.9551,,5.9560,,5.9556,34.3073,,34.3131,34.3035,,34.3055,34.3093,0.2794,,0.2923,0.3024,0.2862,,0.3020,0.3086,0.3055,12.147,12.9757,23.6799,12.447,13.9601,24.1098,23.8949,0.0326,,,, ,, , ,27.0167,,27.0136,,0.6890,84.1761,,,,1.9712E+03,,1.0000E-12,,5.9095,5.9104,0.8965,110.532,4.020,4.119,,,,,,,,,,,,
CalCOFI,2101RL,024,,2101_024u,21-Jan-2021 21:39:18,21-Jan-2021 13:39:18,32.41297,-119.96410,090.0 060.0,090.0,060.0,520.000,524.330,,5.9691,,5.9685,,5.9688,34.3063,,34.3121,34.3026,,34.3046,34.3084,0.2792,,0.2921,0.3022,0.2861,,0.3019,0.3085,0.3054,12.141,12.9694,23.6749,12.440,13.9534,24.1040,23.8895,0.0325,,,, ,, , ,27.0142,,27.0113,,0.6905,84.1443,,,,1.9710E+03,,1.0000E-12,,5.9235,5.9229,0.8965,110.772,4.020,4.119,,,,,,,,,,,,
CalCOFI,2101RL,024,,2101_024u,21-Jan-2021 21:39:21,21-Jan-2021 13:39:21,32.41296,-119.96410,090.0 060.0,090.0,060.0,519.000,523.320,,5.9727,,5.9737,,5.9732,34.3061,,34.3119,34.3023,,34.3043,34.3081,0.2795,,0.2924,0.3025,0.2859,,0.3017,0.3083,0.3054,12.155,12.9841,23.6865,12.434,13.9690,24.0990,23.8928,0.0324,,,, ,, , ,27.0135,,27.0104,,0.6899,84.1572,,,,1.9711E+03,,1.0000E-12,,5.9272,5.9282,0.8965,110.822,4.025,4.117,,,,,,,,,,,,
CalCOFI,2101RL,024,,2101_024u,21-Jan-2021 21:39:24,21-Jan-2021 13:39:24,32.41296,-119.96415,090.0 060.0,090.0,060.0,518.000,522.311,,5.9765,,5.9777,,5.9771,34.3057,,34.3115,34.3020,,34.3040,34.3078,0.2824,,0.2955,0.3055,0.2878,,0.3037,0.3103,0.3079,12.282,13.1170,23.7913,12.516,14.1102,24.1673,23.9793,0.0326,,,, ,, , ,27.0127,,27.0096,,0.6901,84.1534,,,,1.9695E+03,,1.0000E-12,,5.9310,5.9322,0.8965,110.888,4.067,4.145,,,,,,,,,,,,
CalCOFI,2101RL,024,,2101_024u,21-Jan-2021 21:39:26,21-Jan-2021 13:39:26,32.41296,-119.96414,090.0 060.0,090.0,060.0,517.000,521.301,,5.9775,,5.9766,,5.9771,34.3056,,34.3114,34.3021,,34.3041,34.3078,0.2843,,0.2974,0.3075,0.2860,,0.3018,0.3084,0.3080,12.363,13.2018,23.8581,12.438,14.2003,24.1023,23.9802,0.0329,,,, ,, , ,27.0125,,27.0099,,0.6901,84.1531,,,,1.9684E+03,,1.0000E-12,,5.9321,5.9313,0.8965,110.896,4.094,4.119,517,,34.2952,0.306,13.32,,,,,,,
CalCOFI,2101RL,024,,2101_024u,21-Jan-2021 21:39:27,21-Jan-2021 13:39:27,32.41296,-119.96414,090.0 060.0,090.0,060.0,516.000,520.292,,5.9804,,5.9804,,5.9804,34.3054,,34.3112,34.3017,,34.3037,34.3075,0.2848,,0.2980,0.3080,0.2848,,0.3005,0.3071,0.3076,12.383,13.2227,23.8746,12.385,14.2225,24.0581,23.9664,0.0330,,,, ,, , ,27.0119,,27.0090,,0.6898,84.1600,,,,1.9681E+03,,1.0000E-12,,5.9351,5.9351,0.8965,110.941,4.101,4.101,,,,,,,,,,,,
CalCOFI,2101RL,024,,2101_024u,21-Jan-2021 21:39:28,21-Jan-2021 13:39:28,32.41296,-119.96414,090.0 060.0,090.0,060.0,515.000,519.282,,5.9813,,5.9817,,5.9815,34.3041,,34.3099,34.3010,,34.3030,34.3065,0.2857,,0.2989,0.3089,0.2917,,0.3078,0.3144,0.3117,12.425,13.2667,23.9093,12.685,14.2692,24.3081,24.1087,0.0322,,,, ,, , ,27.0108,,27.0083,,0.6898,84.1600,,,,1.9670E+03,,1.0000E-12,,5.9361,5.9365,0.8965,111.032,4.115,4.201,,,,,,,,,,,,
CalCOFI,2101RL,024,,2101_024u,21-Jan-2021 21:39:29,21-Jan-2021 13:39:29,32.41296,-119.96414,090.0 060.0,090.0,060.0,514.000,518.273,,5.9806,,5.9813,,5.9810,34.3035,,34.3093,34.3003,,34.3023,34.3058,0.2911,,0.3046,0.3145,0.2935,,0.3097,0.3163,0.3154,12.660,13.5127,24.1032,12.762,14.5305,24.3723,24.2378,0.0317,,,, ,, , ,27.0104,,27.0078,,0.6898,84.1600,,,,1.9664E+03,,1.0000E-12,,5.9355,5.9362,0.8965,111.060,4.193,4.226,,,,,,,,,,,,
CalCOFI,2101RL,024,,2101_024u,21-Jan-2021 21:39:31,21-Jan-2021 13:39:31,32.41296,-119.96414,090.0 060.0,090.0,060.0,513.000,517.263,,5.9827,,5.9836,,5.9832,34.3021,,34.3079,34.2988,,34.3008,34.3044,0.2889,,0.3023,0.3123,0.2997,,0.3163,0.3228,0.3176,12.564,13.4122,24.0240,13.032,14.4238,24.5973,24.3107,0.0321,,,, ,, , ,27.0090,,27.0063,,0.6898,84.1600,,,,1.9675E+03,,1.0000E-12,,5.9377,5.9386,0.8965,111.174,4.161,4.316,,,,,,,,,,,,
CalCOFI,2101RL,024,,2101_024u,21-Jan-2021 21:39:32,21-Jan-2021 13:39:32,32.41296,-119.96414,090.0 060.0,090.0,060.0,512.000,516.253,,6.0069,,5.9981,,6.0025,34.3010,,34.3068,34.2976,,34.2996,34.3032,0.2950,,0.3086,0.3186,0.3024,,0.3192,0.3256,0.3221,12.827,13.6875,24.2410,13.152,14.7162,24.6973,24.4692,0.0322,,,, ,, , ,27.0051,,27.0035,,0.6898,84.1600,,,,1.9675E+03,,1.0000E-12,,5.9619,5.9531,0.8965,111.561,4.251,4.357,,,,,,,,,,,,
CalCOFI,2101RL,024,,2101_024u,21-Jan-2021 21:39:32,21-Jan-2021 13:39:32,32.41296,-119.96417,090.0 060.0,090.0,060.0,511.000,515.244,,6.0187,,6.0156,,6.0172,34.3007,,34.3065,34.2972,,34.2992,34.3029,0.2917,,0.3052,0.3152,0.2927,,0.3089,0.3154,0.3153,12.683,13.5368,24.1222,12.730,14.5561,24.3456,24.2339,0.0325,,,, ,, , ,27.0034,,27.0010,,0.6900,84.1559,,,,1.9675E+03,,1.0000E-12,,5.9737,5.9706,0.8965,111.717,4.204,4.219,,,,,,,,,,,,
CalCOFI,2101RL,024,,2101_024u,21-Jan-2021 21:39:33,21-Jan-2021 13:39:33,32.41296,-119.96418,090.0 060.0,090.0,060.0,510.000,514.234,,6.0239,,6.0232,,6.0236,34.3007,,34.3065,34.2969,,34.2989,34.3027,0.2928,,0.3063,0.3163,0.3003,,0.3169,0.3234,0.3199,12.731,13.5870,24.1618,13.060,14.6095,24.6206,24.3912,0.0328,,,, ,, , ,27.0027,,26.9998,,0.6901,84.1528,,,,1.9659E+03,,1.0000E-12,,5.9790,5.9783,0.8965,111.777,4.220,4.329,,,,,,,,,,,,
CalCOFI,2101RL,024,,2101_024u,21-Jan-2021 21:39:34,21-Jan-2021 13:39:34,32.41296,-119.96418,090.0 060.0,090.0,060.0,509.000,513.225,,6.0281,,6.0252,,6.0267,34.3003,,34.3061,34.2968,,34.2988,34.3025,0.2995,,0.3134,0.3232,0.2952,,0.3115,0.3181,0.3207,13.022,13.8916,24.4019,12.839,14.9331,24.4364,24.4192,0.0330,,,, ,, , ,27.0018,,26.9995,,0.6903,84.1501,,,,1.9674E+03,,1.0000E-12,,5.9833,5.9804,0.8965,111.848,4.317,4.256,,,,,,,,,,,,
CalCOFI,2101RL,024,,2101_024u,21-Jan-2021 21:39:35,21-Jan-2021 13:39:35,32.41296,-119.96417,090.0 060.0,090.0,060.0,508.000,512.215,,6.0309,,6.0325,,6.0317,34.2996,,34.3054,34.2961,,34.2981,34.3018,0.2961,,0.3098,0.3197,0.2974,,0.3139,0.3204,0.3201,12.876,13.7388,24.2814,12.933,14.7707,24.5148,24.3981,0.0325,,,, ,, , ,27.0010,,26.9980,,0.6898,84.1601,,,,1.9648E+03,,1.0000E-12,,5.9861,5.9877,0.8965,111.921,4.269,4.288,,,,,,,,,,,,
CalCOFI,2101RL,024,,2101_024u,21-Jan-2021 21:39:36,21-Jan-2021 13:39:36,32.41296,-119.96416,090.0 060.0,090.0,060.0,507.000,511.206,,6.0347,,6.0350,,6.0349,34.2992,,34.3050,34.2956,,34.2976,34.3013,0.3010,,0.3149,0.3248,0.2987,,0.3152,0.3217,0.3233,13.088,13.9607,24.4564,12.987,15.0065,24.5598,24.5081,0.0330,,,, ,, , ,27.0001,,26.9973,,0.6898,84.1600,,,,1.9638E+03,,1.0000E-12,,5.9900,5.9903,0.8965,111.993,4.340,4.306,,,,,,,,,,,,
CalCOFI,2101RL,024,,2101_024u,21-Jan-2021 21:39:37,21-Jan-2021 13:39:37,32.41296,-119.96416,090.0 060.0,090.0,060.0,506.000,510.196,,6.0363,,6.0372,,6.0368,34.2989,,34.3047,34.2952,,34.2972,34.3010,0.3025,,0.3165,0.3263,0.3015,,0.3182,0.3247,0.3255,13.154,14.0298,24.5108,13.113,15.0799,24.6648,24.5878,0.0317,,,, ,, , ,26.9997,,26.9967,,0.6898,84.1600,,,,1.9638E+03,,1.0000E-12,,5.9917,5.9926,0.8965,112.023,4.362,4.348,,,,,,,,,,,,
CalCOFI,2101RL,024,,2101_024u,21-Jan-2021 21:39:37,21-Jan-2021 13:39:37,32.41296,-119.96416,090.0 060.0,090.0,060.0,505.000,509.187,,6.0391,,6.0393,,6.0392,34.2981,,34.3039,34.2946,,34.2966,34.3003,0.3013,,0.3152,0.3251,0.3115,,0.3288,0.3351,0.3301,13.104,13.9775,24.4696,13.544,15.0243,25.0239,24.7468,0.0319,,,, ,, , ,26.9987,,26.9959,,0.6899,84.1587,,,,1.9638E+03,,1.0000E-12,,5.9946,5.9948,0.8965,112.100,4.345,4.491,,,,,,,,,,,,
CalCOFI,2101RL,024,,2101_024u,21-Jan-2021 21:39:38,21-Jan-2021 13:39:38,32.41296,-119.96416,090.0 060.0,090.0,060.0,504.000,508.177,,6.0421,,6.0425,,6.0423,34.2968,,34.3026,34.2932,,34.2952,34.2989,0.3080,,0.3223,0.3320,0.3151,,0.3327,0.3389,0.3355,13.393,14.2800,24.7081,13.703,15.3456,25.1564,24.9323,0.0323,,,, ,, , ,26.9972,,26.9944,,0.6905,84.1460,,,,1.9638E+03,,1.0000E-12,,5.9977,5.9981,0.8965,112.229,4.442,4.544,,,,,,,,,,,,
CalCOFI,2101RL,024,,2101_024u,21-Jan-2021 21:39:39,21-Jan-2021 13:39:39,32.41296,-119.96416,090.0 060.0,090.0,060.0,503.000,507.168,,6.0438,,6.0445,,6.0442,34.2953,,34.3011,34.2917,,34.2937,34.2974,0.3121,,0.3265,0.3363,0.3153,,0.3329,0.3391,0.3377,13.571,14.4663,24.8550,13.712,15.5436,25.1639,25.0095,0.0329,,,, ,, , ,26.9959,,26.9930,,0.6902,84.1516,,,,1.9638E+03,,1.0000E-12,,5.9995,6.0001,0.8965,112.346,4.500,4.547,,,,,,,,,,,,
CalCOFI,2101RL,024,,2101_024u,21-Jan-2021 21:39:40,21-Jan-2021 13:39:40,32.41296,-119.96416,090.0 060.0,090.0,060.0,502.000,506.158,,6.0464,,6.0457,,6.0461,34.2922,,34.2980,34.2895,,34.2915,34.2948,0.3140,,0.3285,0.3383,0.3110,,0.3283,0.3346,0.3365,13.653,14.5522,24.9226,13.525,15.6348,25.0081,24.9654,0.0330,,,, ,, , ,26.9931,,26.9910,,0.6898,84.1598,,,,1.9638E+03,,1.0000E-12,,6.0022,6.0015,0.8965,112.599,4.528,4.485,,,,,,,,,,,,
CalCOFI,2101RL,024,,2101_024u,21-Jan-2021 21:39:41,21-Jan-2021 13:39:41,32.41296,-119.96416,090.0 060.0,090.0,060.0,501.000,505.148,,6.0520,,6.0533,,6.0527,34.2904,,34.2962,34.2865,,34.2885,34.2924,0.3133,,0.3278,0.3375,0.3133,,0.3308,0.3370,0.3373,13.625,14.5229,24.8995,13.623,15.6036,25.0898,24.9947,0.0323,,,, ,, , ,26.9909,,26.9877,,0.6898,84.1600,,,,1.9638E+03,,1.0000E-12,,6.0078,6.0091,0.8965,112.791,4.519,4.519,,,,,,,,,,,,
CalCOFI,2101RL,024,,2101_024u,21-Jan-2021 21:39:42,21-Jan-2021 13:39:42,32.41296,-119.96416,090.0 060.0,090.0,060.0,500.000,504.139,,6.0605,,6.0608,,6.0607,34.2905,,34.2963,34.2863,,34.2883,34.2923,0.3097,,0.3240,0.3338,0.3253,,0.3435,0.3496,0.3417,13.468,14.3585,24.7700,14.145,15.4290,25.5247,25.1474,0.0321,,,, ,, , ,26.9899,,26.9866,,0.6908,84.1391,,,,1.9634E+03,,1.0000E-12,,6.0164,6.0167,0.8965,112.885,4.468,4.693,,,,,,,,,,,,
CalCOFI,2101RL,024,,2101_024u,21-Jan-2021 21:39:42,21-Jan-2021 13:39:42,32.41296,-119.96416,090.0 060.0,090.0,060.0,499.000,503.130,,6.0662,,6.0657,,6.0660,34.2906,,34.2964,34.2868,,34.2888,34.2926,0.3144,,0.3290,0.3387,0.3129,,0.3303,0.3366,0.3377,13.674,14.5741,24.9400,13.605,15.6581,25.0748,25.0074,0.0327,,,, ,, , ,26.9892,,26.9863,,0.6902,84.1521,,,,1.9621E+03,,1.0000E-12,,6.0221,6.0216,0.8965,112.940,4.537,4.514,,,,,,,,,,,,
CalCOFI,2101RL,024,,2101_024u,21-Jan-2021 21:39:44,21-Jan-2021 13:39:44,32.41296,-119.96416,090.0 060.0,090.0,060.0,498.000,502.120,,6.0652,,6.0665,,6.0659,34.2911,,34.2969,34.2869,,34.2889,34.2929,0.3146,,0.3292,0.3389,0.3176,,0.3353,0.3415,0.3402,13.681,14.5815,24.9457,13.812,15.6659,25.2472,25.0965,0.0322,,,, ,, , ,26.9898,,26.9863,,0.6899,84.1586,,,,1.9630E+03,,1.0000E-12,,6.0212,6.0226,0.8965,112.874,4.539,4.583,,,,,,,,,,,,
CalCOFI,2101RL,024,,2101_024u,21-Jan-2021 21:39:45,21-Jan-2021 13:39:45,32.41296,-119.96417,090.0 060.0,090.0,060.0,497.000,501.111,,6.0650,,6.0670,,6.0660,34.2906,,34.2964,34.2867,,34.2887,34.2926,0.3197,,0.3345,0.3442,0.3196,,0.3374,0.3436,0.3439,13.903,14.8139,25.1289,13.899,15.9128,25.3197,25.2243,0.0323,,,, ,, , ,26.9894,,26.9861,,0.6901,84.1528,,,,1.9631E+03,,1.0000E-12,,6.0211,6.0231,0.8965,112.896,4.613,4.612,,,,,,,,,,,,
CalCOFI,2101RL,024,,2101_024u,21-Jan-2021 21:39:47,21-Jan-2021 13:39:47,32.41296,-119.96418,090.0 060.0,090.0,060.0,496.000,500.101,,6.0755,,6.0726,,6.0741,34.2887,,34.2945,34.2857,,34.2877,34.2911,0.3253,,0.3404,0.3500,0.3296,,0.3481,0.3541,0.3521,14.148,15.0703,25.3311,14.333,16.1852,25.6814,25.5063,0.0317,,,, ,, , ,26.9865,,26.9846,,0.6898,84.1601,,,,1.9622E+03,,1.0000E-12,,6.0317,6.0288,0.8965,113.162,4.695,4.756,,,,,,,,,,,,
CalCOFI,2101RL,024,,2101_024u,21-Jan-2021 21:39:47,21-Jan-2021 13:39:47,32.41296,-119.96418,090.0 060.0,090.0,060.0,495.000,499.091,,6.0775,,6.0788,,6.0782,34.2876,,34.2934,34.2841,,34.2861,34.2898,0.3284,,0.3436,0.3532,0.3261,,0.3444,0.3504,0.3518,14.280,15.2085,25.4400,14.179,16.3320,25.5531,25.4966,0.0321,,,, ,, , ,26.9854,,26.9825,,0.6898,84.1600,,,,1.9629E+03,,1.0000E-12,,6.0338,6.0351,0.8965,113.254,4.739,4.706,,,,,,,,,,,,
CalCOFI,2101RL,024,,2101_024u,21-Jan-2021 21:39:48,21-Jan-2021 13:39:48,32.41296,-119.96418,090.0 060.0,090.0,060.0,494.000,498.082,,6.0756,,6.0766,,6.0761,34.2853,,34.2911,34.2829,,34.2849,34.2880,0.3289,,0.3441,0.3537,0.3283,,0.3467,0.3528,0.3533,14.303,15.2326,25.4590,14.276,16.3576,25.6339,25.5465,0.0326,,,, ,, , ,26.9838,,26.9818,,0.6898,84.1600,,,,1.9608E+03,,1.0000E-12,,6.0319,6.0330,0.8965,113.388,4.747,4.738,,,,,,,,,,,,
CalCOFI,2101RL,024,,2101_024u,21-Jan-2021 21:39:49,21-Jan-2021 13:39:49,32.41295,-119.96419,090.0 060.0,090.0,060.0,493.000,497.073,,6.0773,,6.0768,,6.0771,34.2843,,34.2901,34.2815,,34.2835,34.2868,0.3260,,0.3411,0.3507,0.3318,,0.3504,0.3564,0.3536,14.177,15.1007,25.3550,14.427,16.2175,25.7597,25.5574,0.0329,,,, ,, , ,26.9828,,26.9807,,0.6898,84.1600,,,,1.9564E+03,,1.0000E-12,,6.0337,6.0333,0.8965,113.470,4.705,4.788,,,,,,,,,,,,
CalCOFI,2101RL,024,,2101_024u,21-Jan-2021 21:39:50,21-Jan-2021 13:39:50,32.41294,-119.96420,090.0 060.0,090.0,060.0,492.000,496.063,,6.0843,,6.0843,,6.0843,34.2846,,34.2904,34.2806,,34.2826,34.2865,0.3306,,0.3459,0.3555,0.3321,,0.3507,0.3567,0.3561,14.379,15.3121,25.5217,14.442,16.4421,25.7722,25.6470,0.0327,,,, ,, , ,26.9822,,26.9790,,0.6898,84.1600,,,,1.9547E+03,,1.0000E-12,,6.0408,6.0408,0.8965,113.525,4.773,4.794,,,,,,,,,,,,
CalCOFI,2101RL,024,,2101_024u,21-Jan-2021 21:39:50,21-Jan-2021 13:39:50,32.41294,-119.96420,090.0 060.0,090.0,060.0,491.000,495.054,,6.0994,,6.0968,,6.0981,34.2844,,34.2902,34.2806,,34.2826,34.2864,0.3327,,0.3481,0.3576,0.3293,,0.3477,0.3538,0.3557,14.468,15.4053,25.5952,14.321,16.5411,25.6714,25.6333,0.0327,,,, ,, , ,26.9801,,26.9774,,0.6902,84.1510,,,,1.9554E+03,,1.0000E-12,,6.0559,6.0534,0.8965,113.728,4.804,4.755,,,,,,,,,,,,
CalCOFI,2101RL,024,,2101_024u,21-Jan-2021 21:39:51,21-Jan-2021 13:39:51,32.41294,-119.96420,090.0 060.0,090.0,060.0,490.000,494.044,,6.1191,,6.1174,,6.1183,34.2846,,34.2904,34.2810,,34.2830,34.2867,0.3327,,0.3481,0.3576,0.3239,,0.3420,0.3481,0.3529,14.469,15.4063,25.5960,14.087,16.5422,25.4764,25.5362,0.0330,,,, ,, , ,26.9777,,26.9751,,0.6899,84.1573,,,,1.9588E+03,,1.0000E-12,,6.0757,6.0740,0.8965,113.958,4.806,4.679,,,,,,,,,,,,
CalCOFI,2101RL,024,,2101_024u,21-Jan-2021 21:39:52,21-Jan-2021 13:39:52,32.41294,-119.96420,090.0 060.0,090.0,060.0,489.000,493.035,,6.1280,,6.1263,,6.1272,34.2843,,34.2901,34.2808,,34.2828,34.2865,0.3331,,0.3485,0.3580,0.3312,,0.3498,0.3558,0.3569,14.486,15.4241,25.6100,14.403,16.5611,25.7397,25.6749,0.0337,,,, ,, , ,26.9763,,26.9738,,0.6902,84.1509,,,,1.9596E+03,,1.0000E-12,,6.0847,6.0830,0.8965,114.085,4.813,4.785,,,,,,,,,,,,
CalCOFI,2101RL,024,,2101_024u,21-Jan-2021 21:39:53,21-Jan-2021 13:39:53,32.41294,-119.96420,090.0 060.0,090.0,060.0,488.000,492.025,,6.1309,,6.1327,,6.1318,34.2840,,34.2898,34.2805,,34.2825,34.2862,0.3309,,0.3462,0.3558,0.3382,,0.3572,0.3631,0.3595,14.390,15.3237,25.5308,14.706,16.4543,25.9922,25.7615,0.0328,,,, ,, , ,26.9757,,26.9728,,0.6898,84.1599,,,,1.9601E+03,,1.0000E-12,,6.0876,6.0894,0.8965,114.130,4.782,4.887,,,,,,,,,,,,
CalCOFI,2101RL,024,,2101_024u,21-Jan-2021 21:39:53,21-Jan-2021 13:39:53,32.41294,-119.96420,090.0 060.0,090.0,060.0,487.000,491.016,,6.1339,,6.1351,,6.1345,34.2837,,34.2895,34.2802,,34.2822,34.2859,0.3297,,0.3450,0.3545,0.3381,,0.3571,0.3630,0.3588,14.337,15.2682,25.4871,14.702,16.3954,25.9889,25.7380,0.0326,,,, ,, , ,26.9751,,26.9722,,0.6898,84.1600,,,,1.9601E+03,,1.0000E-12,,6.0907,6.0919,0.8965,114.178,4.764,4.886,,,,,,,,,,,,
CalCOFI,2101RL,024,,2101_024u,21-Jan-2021 21:39:54,21-Jan-2021 13:39:54,32.41294,-119.96420,090.0 060.0,090.0,060.0,486.000,490.006,,6.1338,,6.1349,,6.1344,34.2837,,34.2895,34.2799,,34.2819,34.2857,0.3328,,0.3482,0.3577,0.3393,,0.3584,0.3643,0.3610,14.473,15.4105,25.5993,14.755,16.5466,26.0330,25.8162,0.0324,,,, ,, , ,26.9751,,26.9720,,0.6905,84.1448,,,,1.9590E+03,,1.0000E-12,,6.0907,6.0918,0.8965,114.164,4.809,4.903,,,,,,,,,,,,
CalCOFI,2101RL,024,,2101_024u,21-Jan-2021 21:39:56,21-Jan-2021 13:39:56,32.41296,-119.96420,090.0 060.0,090.0,060.0,485.000,488.997,,6.1389,,6.1377,,6.1383,34.2830,,34.2888,34.2795,,34.2815,34.2852,0.3389,,0.3546,0.3641,0.3387,,0.3577,0.3637,0.3639,14.738,15.6879,25.8180,14.729,16.8413,26.0114,25.9147,0.0317,,,, ,, , ,26.9739,,26.9713,,0.6903,84.1500,,,,1.9545E+03,,1.0000E-12,,6.0959,6.0947,0.8965,114.271,4.898,4.895,,,,,,,,,,,,
CalCOFI,2101RL,024,,2101_024u,21-Jan-2021 21:39:57,21-Jan-2021 13:39:57,32.41296,-119.96420,090.0 060.0,090.0,060.0,484.000,487.988,,6.1440,,6.1420,,6.1430,34.2822,,34.2880,34.2789,,34.2809,34.2845,0.3386,,0.3543,0.3637,0.3347,,0.3535,0.3595,0.3616,14.725,15.6743,25.8073,14.556,16.8268,25.8672,25.8373,0.0327,,,, ,, , ,26.9726,,26.9702,,0.6900,84.1555,,,,1.9562E+03,,1.0000E-12,,6.1011,6.0991,0.8965,114.385,4.894,4.838,,,,,,,,,,,,
CalCOFI,2101RL,024,,2101_024u,21-Jan-2021 21:39:58,21-Jan-2021 13:39:58,32.41296,-119.96420,090.0 060.0,090.0,060.0,483.000,486.978,,6.1494,,6.1448,,6.1471,34.2813,,34.2871,34.2784,,34.2804,34.2838,0.3394,,0.3551,0.3646,0.3402,,0.3593,0.3652,0.3649,14.759,15.7099,25.8353,14.794,16.8646,26.0655,25.9504,0.0321,,,, ,, , ,26.9712,,26.9695,,0.6898,84.1600,,,,1.9560E+03,,1.0000E-12,,6.1065,6.1019,0.8965,114.504,4.906,4.917,,,,,,,,,,,,
CalCOFI,2101RL,024,,2101_024u,21-Jan-2021 21:39:59,21-Jan-2021 13:39:59,32.41296,-119.96420,090.0 060.0,090.0,060.0,482.000,485.969,,6.1553,,6.1495,,6.1524,34.2811,,34.2869,34.2778,,34.2798,34.2834,0.3392,,0.3549,0.3644,0.3414,,0.3606,0.3665,0.3655,14.749,15.6995,25.8271,14.846,16.8535,26.1089,25.9680,0.0326,,,, ,, , ,26.9703,,26.9684,,0.6898,84.1600,,,,1.9556E+03,,1.0000E-12,,6.1125,6.1067,0.8965,114.586,4.903,4.935,,,,,,,,,,,,
CalCOFI,2101RL,024,,2101_024u,21-Jan-2021 21:40:00,21-Jan-2021 13:40:00,32.41296,-119.96420,090.0 060.0,090.0,060.0,481.000,484.959,,6.1628,,6.1594,,6.1611,34.2802,,34.2860,34.2769,,34.2789,34.2825,0.3447,,0.3607,0.3701,0.3491,,0.3688,0.3746,0.3724,14.989,15.9507,26.0251,15.180,17.1204,26.3872,26.2062,0.0330,,,, ,, , ,26.9686,,26.9664,,0.6898,84.1600,,,,1.9560E+03,,1.0000E-12,,6.1200,6.1167,0.8965,114.736,4.984,5.047,,,,,,,,,,,,
CalCOFI,2101RL,024,,2101_024u,21-Jan-2021 21:40:01,21-Jan-2021 13:40:01,32.41296,-119.96420,090.0 060.0,090.0,060.0,480.000,483.950,,6.1771,,6.1684,,6.1728,34.2797,,34.2855,34.2763,,34.2783,34.2819,0.3473,,0.3634,0.3728,0.3482,,0.3678,0.3736,0.3732,15.106,16.0732,26.1217,15.143,17.2505,26.3564,26.2391,0.0319,,,, ,, , ,26.9663,,26.9648,,0.6898,84.1600,,,,1.9547E+03,,1.0000E-12,,6.1344,6.1257,0.8965,114.954,5.024,5.036,,,,,,,,,,,,
CalCOFI,2101RL,024,,2101_024u,21-Jan-2021 21:40:02,21-Jan-2021 13:40:02,32.41296,-119.96420,090.0 060.0,090.0,060.0,479.000,482.941,,6.1934,,6.1809,,6.1872,34.2799,,34.2857,34.2764,,34.2784,34.2821,0.3500,,0.3662,0.3756,0.3482,,0.3678,0.3736,0.3746,15.222,16.1946,26.2174,15.140,17.3795,26.3539,26.2857,0.0322,,,, ,, , ,26.9644,,26.9633,,0.6898,84.1600,,,,1.9542E+03,,1.0000E-12,,6.1507,6.1383,0.8965,115.136,5.065,5.036,,,,,,,,,,,,
CalCOFI,2101RL,024,,2101_024u,21-Jan-2021 21:40:02,21-Jan-2021 13:40:02,32.41296,-119.96420,090.0 060.0,090.0,060.0,478.000,481.931,,6.2123,,6.2076,,6.2100,34.2794,,34.2852,34.2759,,34.2779,34.2816,0.3480,,0.3641,0.3735,0.3488,,0.3685,0.3742,0.3739,15.131,16.0993,26.1423,15.168,17.2783,26.3772,26.2598,0.0322,,,, ,, , ,26.9616,,26.9594,,0.6898,84.1600,,,,1.9503E+03,,1.0000E-12,,6.1696,6.1650,0.8965,115.407,5.037,5.049,,,,,,,,,,,,
CalCOFI,2101RL,024,,2101_024u,21-Jan-2021 21:40:03,21-Jan-2021 13:40:03,32.41296,-119.96420,090.0 060.0,090.0,060.0,477.000,480.922,,6.2191,,6.2154,,6.2173,34.2792,,34.2850,34.2755,,34.2775,34.2813,0.3521,,0.3684,0.3777,0.3471,,0.3667,0.3725,0.3751,15.312,16.2888,26.2917,15.092,17.4796,26.3139,26.3028,0.0332,,,, ,, , ,26.9605,,26.9581,,0.6898,84.1600,,,,1.9516E+03,,1.0000E-12,,6.1765,6.1728,0.8965,115.503,5.098,5.024,,,,,,,,,,,,
CalCOFI,2101RL,024,,2101_024u,21-Jan-2021 21:40:04,21-Jan-2021 13:40:04,32.41296,-119.96420,090.0 060.0,090.0,060.0,476.000,479.912,,6.2214,,6.2207,,6.2211,34.2786,,34.2844,34.2749,,34.2769,34.2807,0.3523,,0.3686,0.3779,0.3526,,0.3725,0.3782,0.3781,15.320,16.2972,26.2983,15.336,17.4885,26.5172,26.4078,0.0328,,,, ,, , ,26.9598,,26.9570,,0.6901,84.1539,,,,1.9530E+03,,1.0000E-12,,6.1789,6.1782,0.8965,115.562,5.101,5.106,,,,,,,,,,,,
CalCOFI,2101RL,024,,2101_024u,21-Jan-2021 21:40:05,21-Jan-2021 13:40:05,32.41295,-119.96420,090.0 060.0,090.0,060.0,475.000,478.903,,6.2286,,6.2280,,6.2283,34.2778,,34.2836,34.2741,,34.2761,34.2799,0.3570,,0.3735,0.3828,0.3631,,0.3836,0.3892,0.3860,15.523,16.5097,26.4658,15.791,17.7142,26.8963,26.6811,0.0325,,,, ,, , ,26.9583,,26.9554,,0.6898,84.1601,,,,1.9540E+03,,1.0000E-12,,6.1862,6.1856,0.8965,115.700,5.169,5.258,,,,,,,,,,,,
CalCOFI,2101RL,024,,2101_024u,21-Jan-2021 21:40:06,21-Jan-2021 13:40:06,32.41294,-119.96420,090.0 060.0,090.0,060.0,474.000,477.894,,6.2482,,6.2440,,6.2461,34.2765,,34.2823,34.2732,,34.2752,34.2788,0.3585,,0.3751,0.3844,0.3600,,0.3804,0.3860,0.3852,15.592,16.5819,26.5227,15.654,17.7910,26.7822,26.6525,0.0320,,,, ,, , ,26.9546,,26.9526,,0.6902,84.1510,,,,1.9539E+03,,1.0000E-12,,6.2058,6.2016,0.8965,116.049,5.195,5.215,,,,,,,,,,,,
CalCOFI,2101RL,024,,2101_024u,21-Jan-2021 21:40:07,21-Jan-2021 13:40:07,32.41294,-119.96420,090.0 060.0,090.0,060.0,473.000,476.884,,6.2594,,6.2603,,6.2599,34.2767,,34.2825,34.2727,,34.2747,34.2786,0.3651,,0.3820,0.3912,0.3554,,0.3755,0.3812,0.3862,15.877,16.8802,26.7579,15.455,18.1079,26.6163,26.6871,0.0323,,,, ,, , ,26.9534,,26.9501,,0.6898,84.1599,,,,1.9519E+03,,1.0000E-12,,6.2171,6.2179,0.8965,116.167,5.291,5.150,,,,,,,,,,,,
CalCOFI,2101RL,024,,2101_024u,21-Jan-2021 21:40:08,21-Jan-2021 13:40:08,32.41294,-119.96420,090.0 060.0,090.0,060.0,472.000,475.875,,6.2842,,6.2793,,6.2818,34.2762,,34.2820,34.2729,,34.2749,34.2785,0.3640,,0.3809,0.3901,0.3640,,0.3846,0.3902,0.3902,15.828,16.8290,26.7175,15.828,18.0534,26.9272,26.8224,0.0321,,,, ,, , ,26.9498,,26.9478,,0.6898,84.1600,,,,1.9488E+03,,1.0000E-12,,6.2419,6.2370,0.8965,116.516,5.278,5.277,,,,,,,,,,,,
CalCOFI,2101RL,024,,2101_024u,21-Jan-2021 21:40:09,21-Jan-2021 13:40:09,32.41294,-119.96420,090.0 060.0,090.0,060.0,471.000,474.866,,6.2910,,6.2853,,6.2882,34.2756,,34.2814,34.2721,,34.2741,34.2778,0.3642,,0.3811,0.3903,0.3661,,0.3868,0.3924,0.3914,15.840,16.8415,26.7274,15.921,18.0667,27.0047,26.8661,0.0322,,,, ,, , ,26.9484,,26.9464,,0.6902,84.1504,,,,1.9467E+03,,1.0000E-12,,6.2487,6.2431,0.8965,116.638,5.283,5.309,,,,,,,,,,,,
CalCOFI,2101RL,024,,2101_024u,21-Jan-2021 21:40:10,21-Jan-2021 13:40:10,32.41294,-119.96420,090.0 060.0,090.0,060.0,470.000,473.856,,6.2922,,6.2890,,6.2906,34.2749,,34.2807,34.2715,,34.2735,34.2771,0.3655,,0.3824,0.3916,0.3637,,0.3843,0.3899,0.3908,15.895,16.8991,26.7727,15.817,18.1279,26.9180,26.8454,0.0327,,,, ,, , ,26.9477,,26.9454,,0.6898,84.1599,,,,1.9474E+03,,1.0000E-12,,6.2500,6.2468,0.8965,116.691,5.301,5.274,,,,,,,,,,,,
CalCOFI,2101RL,024,,2101_024u,21-Jan-2021 21:40:11,21-Jan-2021 13:40:11,32.41294,-119.96420,090.0 060.0,090.0,060.0,469.000,472.847,,6.2905,,6.2915,,6.2910,34.2741,,34.2799,34.2709,,34.2729,34.2764,0.3639,,0.3808,0.3899,0.3679,,0.3887,0.3943,0.3921,15.827,16.8279,26.7166,15.999,18.0523,27.0697,26.8932,0.0322,,,, ,, , ,26.9473,,26.9446,,0.6898,84.1600,,,,1.9457E+03,,1.0000E-12,,6.2484,6.2494,0.8965,116.715,5.278,5.336,,,,,,,,,,,,